{"data":{"norad_id":47408,"epoch":"2026-09-19T11:49:36.721632Z","epoch_age_seconds":112719,"freshness":"FRESH","line1":"1 47408U 21005BM  26262.49278613  .00034781  00000+0  10291-2 0  9996","line2":"2 47408  53.1577 214.8326 0003918  82.1857 277.9590 15.34598870313085","mean_motion":15.3459887,"eccentricity":0.0003918,"inclination_deg":53.1577,"raan_deg":214.8326,"arg_perigee_deg":82.1857,"mean_anomaly_deg":277.959,"bstar":0.0010291,"rev_number":31308,"period_min":93.83559626888,"perigee_km":459.43221084601,"apogee_km":464.79223013519,"semimajor_km":6840.2492204906,"source":"CELESTRAK","updated_at":"2026-09-20T09:00:38.596319Z"}}